TimeEST,TemperatureF,Dew PointF,Humidity,Sea Level PressureIn,VisibilityMPH,Wind Direction,Wind SpeedMPH,Gust SpeedMPH,PrecipitationIn,Events,Conditions,WindDirDegrees,DateUTC
12:51 AM,30.0,10.0,43,29.73,10.0,NNW,19.6,27.6,N/A,,Overcast,330,2013-02-17 05:51:00
1:51 AM,30.0,10.9,45,29.73,10.0,North,13.8,21.9,N/A,,Overcast,350,2013-02-17 06:51:00
2:51 AM,30.0,10.9,45,29.71,10.0,North,16.1,25.3,N/A,,Overcast,350,2013-02-17 07:51:00
3:51 AM,28.9,10.9,47,29.70,10.0,NNW,19.6,26.5,N/A,,Overcast,330,2013-02-17 08:51:00
4:51 AM,28.9,10.0,45,29.68,10.0,NW,17.3,-,N/A,,Overcast,320,2013-02-17 09:51:00
5:51 AM,28.9,3.9,35,29.69,10.0,NW,19.6,25.3,N/A,,Overcast,320,2013-02-17 10:51:00
6:51 AM,28.0,1.9,33,29.68,10.0,NW,19.6,27.6,N/A,,Overcast,320,2013-02-17 11:51:00
7:51 AM,28.0,1.0,31,29.70,10.0,NW,19.6,27.6,N/A,,Mostly Cloudy,310,2013-02-17 12:51:00
8:51 AM,28.0,1.0,31,29.69,10.0,NW,20.7,32.2,N/A,,Mostly Cloudy,310,2013-02-17 13:51:00
9:51 AM,28.9,-0.0,29,29.70,10.0,NW,23.0,34.5,N/A,,Scattered Clouds,320,2013-02-17 14:51:00
10:51 AM,30.9,1.0,28,29.71,10.0,WNW,31.1,36.8,N/A,,Scattered Clouds,300,2013-02-17 15:51:00
11:51 AM,33.1,1.0,26,29.72,10.0,NW,27.6,38.0,N/A,,Scattered Clouds,320,2013-02-17 16:51:00
12:51 PM,34.0,3.0,27,29.72,10.0,NW,27.6,35.7,N/A,,Mostly Cloudy,310,2013-02-17 17:51:00
1:51 PM,33.1,1.0,26,29.74,10.0,NW,27.6,40.3,N/A,,Mostly Cloudy,310,2013-02-17 18:51:00
2:51 PM,32.0,-0.0,26,29.75,10.0,NW,23.0,34.5,N/A,,Mostly Cloudy,310,2013-02-17 19:51:00
3:51 PM,30.9,-0.9,26,29.77,10.0,WNW,24.2,39.1,N/A,,Mostly Cloudy,290,2013-02-17 20:51:00
4:51 PM,28.9,3.9,35,29.80,10.0,WNW,24.2,31.1,N/A,,Mostly Cloudy,290,2013-02-17 21:51:00
5:51 PM,26.1,7.0,44,29.84,10.0,WNW,23.0,32.2,N/A,,Mostly Cloudy,300,2013-02-17 22:51:00
6:51 PM,24.1,7.0,48,29.88,10.0,NW,19.6,27.6,N/A,,Partly Cloudy,310,2013-02-17 23:51:00
7:51 PM,23.0,-0.0,37,29.92,10.0,WNW,26.5,34.5,N/A,,Partly Cloudy,300,2013-02-18 00:51:00
8:51 PM,21.0,-0.9,38,29.96,10.0,NW,24.2,36.8,N/A,,Partly Cloudy,310,2013-02-18 01:51:00
9:51 PM,19.9,-0.9,40,29.99,10.0,WNW,16.1,25.3,N/A,,Partly Cloudy,300,2013-02-18 02:51:00
10:51 PM,19.0,-0.9,42,30.01,10.0,WNW,25.3,34.5,N/A,,Partly Cloudy,300,2013-02-18 03:51:00